| time (UTC) | temp C | wind direction | speed KPH | gust KPH | rain 1hr cm | rain 24hr cm | rain mn cm | humidity % | barometer mb |
| 20260508023730 | 15 | 299 | 0.0 | 9.7 | 0.00 | 0.00 | 0.00 | 28 | 1014.5 |
| 20260508023230 | 15 | 288 | 1.6 | 9.7 | 0.00 | 0.00 | 0.00 | 28 | 1014.4 |
| 20260508022730 | 15 | 288 | 0.0 | 9.7 | 0.00 | 0.00 | 0.00 | 29 | 1014.3 |
| 20260508022230 | 16 | 284 | 0.0 | 9.7 | 0.00 | 0.00 | 0.00 | 30 | 1014.3 |
| 20260508021730 | 16 | 305 | 0.0 | 9.7 | 0.00 | 0.00 | 0.00 | 31 | 1014.2 |
| 20260508020729 | 16 | 325 | 0.0 | 14.5 | 0.00 | 0.00 | 0.00 | 34 | 1014.1 |
| 20260508020230 | 16 | 322 | 1.6 | 16.1 | 0.00 | 0.00 | 0.00 | 36 | 1014.0 |
| 20260508015730 | 17 | 74 | 0.0 | 17.7 | 0.00 | 0.00 | 0.00 | 39 | 1014.0 |
| 20260508015229 | 17 | 320 | 9.7 | 17.7 | 0.00 | 0.00 | 0.00 | 41 | 1014.0 |
| 20260508014730 | 18 | 309 | 9.7 | 14.5 | 0.00 | 0.00 | 0.00 | 43 | 1014.1 |
| 20260508014230 | 18 | 287 | 1.6 | 11.3 | 0.00 | 0.00 | 0.00 | 44 | 1014.1 |
| 20260508013229 | 19 | 320 | 1.6 | 11.3 | 0.00 | 0.00 | 0.00 | 44 | 1013.9 |
| 20260508012730 | 20 | 294 | 0.0 | 14.5 | 0.00 | 0.00 | 0.00 | 45 | 1013.9 |
| 20260508012229 | 20 | 302 | 0.0 | 16.1 | 0.00 | 0.00 | 0.00 | 45 | 1013.9 |
| 20260508011729 | 20 | 272 | 1.6 | 16.1 | 0.00 | 0.00 | 0.00 | 45 | 1013.8 |
| 20260508011229 | 20 | 273 | 0.0 | 16.1 | 0.00 | 0.00 | 0.00 | 45 | 1013.8 |
| 20260508010229 | 21 | 284 | 14.5 | 16.1 | 0.00 | 0.00 | 0.00 | 45 | 1013.9 |
| 20260508004729 | 21 | 250 | 4.8 | 11.3 | 0.00 | 0.00 | 0.00 | 45 | 1013.7 |
| 20260508004228 | 21 | 296 | 6.4 | 16.1 | 0.00 | 0.00 | 0.00 | 45 | 1014.0 |
| 20260508003728 | 21 | 314 | 1.6 | 16.1 | 0.00 | 0.00 | 0.00 | 45 | 1013.8 |
| 20260508003229 | 22 | 237 | 1.6 | 17.7 | 0.00 | 0.00 | 0.00 | 45 | 1013.7 |
| 20260508002728 | 22 | 298 | 6.4 | 17.7 | 0.00 | 0.00 | 0.00 | 45 | 1013.7 |
| 20260508002229 | 22 | 180 | 3.2 | 17.7 | 0.00 | 0.00 | 0.00 | 45 | 1013.7 |
| 20260508001728 | 22 | 290 | 0.0 | 17.7 | 0.00 | 0.00 | 0.00 | 45 | 1013.7 |
| 20260508000728 | 22 | 293 | 3.2 | 11.3 | 0.00 | 0.00 | 0.00 | 45 | 1013.7 |
| 20260508000228 | 22 | 259 | 1.6 | 14.5 | 0.00 | 0.00 | 0.00 | 46 | 1013.7 |
| 20260507235228 | 22 | 261 | 1.6 | 22.5 | 0.00 | 0.00 | 0.00 | 46 | 1013.8 |
| 20260507234728 | 23 | 311 | 1.6 | 22.5 | 0.00 | 0.00 | 0.00 | 46 | 1013.6 |
| 20260507234228 | 23 | 288 | 6.4 | 20.9 | 0.00 | 0.00 | 0.00 | 46 | 1013.6 |
| 20260507233728 | 23 | 304 | 1.6 | 20.9 | 0.00 | 0.00 | 0.00 | 45 | 1013.5 |
| 20260507232728 | 24 | 264 | 0.0 | 19.3 | 0.00 | 0.00 | 0.00 | 45 | 1013.6 |
| 20260507232227 | 24 | 242 | 4.8 | 19.3 | 0.00 | 0.00 | 0.00 | 44 | 1013.6 |
| 20260507231727 | 25 | 249 | 8.0 | 16.1 | 0.00 | 0.00 | 0.00 | 44 | 1013.6 |
| 20260507231227 | 25 | 291 | 6.4 | 19.3 | 0.00 | 0.00 | 0.00 | 43 | 1013.6 |
| 20260507230227 | 25 | 264 | 6.4 | 16.1 | 0.00 | 0.00 | 0.00 | 43 | 1013.7 |
| 20260507225727 | 25 | 311 | 0.0 | 11.3 | 0.00 | 0.00 | 0.00 | 43 | 1013.6 |
| 20260507225227 | 25 | 262 | 8.0 | 11.3 | 0.00 | 0.00 | 0.00 | 43 | 1013.7 |
| 20260507224727 | 25 | 290 | 0.0 | 14.5 | 0.00 | 0.00 | 0.00 | 43 | 1013.7 |
| 20260507224227 | 25 | 259 | 6.4 | 16.1 | 0.00 | 0.00 | 0.00 | 43 | 1013.7 |
| 20260507223727 | 25 | 219 | 0.0 | 16.1 | 0.00 | 0.00 | 0.00 | 42 | 1013.8 |
| 20260507223227 | 25 | 315 | 4.8 | 17.7 | 0.00 | 0.00 | 0.00 | 43 | 1013.8 |
| 20260507222727 | 25 | 225 | 1.6 | 17.7 | 0.00 | 0.00 | 0.00 | 43 | 1013.8 |
| 20260507221227 | 25 | 241 | 0.0 | 20.9 | 0.00 | 0.00 | 0.00 | 43 | 1014.0 |
| 20260507220727 | 25 | 315 | 6.4 | 19.3 | 0.00 | 0.00 | 0.00 | 43 | 1014.0 |
| 20260507220227 | 25 | 235 | 8.0 | 19.3 | 0.00 | 0.00 | 0.00 | 42 | 1014.0 |
| 20260507215726 | 25 | 306 | 0.0 | 19.3 | 0.00 | 0.00 | 0.00 | 43 | 1014.0 |
| 20260507215226 | 25 | 262 | 6.4 | 22.5 | 0.00 | 0.00 | 0.00 | 42 | 1014.0 |
| 20260507214726 | 25 | 327 | 4.8 | 22.5 | 0.00 | 0.00 | 0.00 | 43 | 1014.1 |
| 20260507214226 | 25 | 309 | 14.5 | 25.7 | 0.00 | 0.00 | 0.00 | 43 | 1014.1 |
| 20260507213726 | 25 | 249 | 9.7 | 25.7 | 0.00 | 0.00 | 0.00 | 43 | 1014.2 |
| 20260507213226 | 25 | 272 | 6.4 | 17.7 | 0.00 | 0.00 | 0.00 | 43 | 1014.2 |
| 20260507212727 | 25 | 346 | 4.8 | 22.5 | 0.00 | 0.00 | 0.00 | 43 | 1014.2 |
| 20260507212226 | 25 | 311 | 3.2 | 22.5 | 0.00 | 0.00 | 0.00 | 43 | 1014.2 |
| 20260507211725 | 25 | 323 | 11.3 | 20.9 | 0.00 | 0.00 | 0.00 | 42 | 1014.1 |
| 20260507211226 | 26 | 320 | 9.7 | 20.9 | 0.00 | 0.00 | 0.00 | 42 | 1014.2 |
| 20260507205725 | 26 | 326 | 9.7 | 20.9 | 0.00 | 0.00 | 0.00 | 42 | 1014.3 |
| 20260507205225 | 26 | 234 | 8.0 | 20.9 | 0.00 | 0.00 | 0.00 | 42 | 1014.4 |
| 20260507204725 | 26 | 298 | 3.2 | 19.3 | 0.00 | 0.00 | 0.00 | 42 | 1014.4 |
| 20260507204225 | 26 | 279 | 9.7 | 17.7 | 0.00 | 0.00 | 0.00 | 41 | 1014.4 |
| 20260507203225 | 27 | 278 | 9.7 | 19.3 | 0.00 | 0.00 | 0.00 | 40 | 1014.6 |
| 20260507202724 | 27 | 313 | 0.0 | 16.1 | 0.00 | 0.00 | 0.00 | 40 | 1014.6 |
| 20260507202224 | 27 | 253 | 1.6 | 16.1 | 0.00 | 0.00 | 0.00 | 39 | 1014.6 |
| 20260507201725 | 27 | 298 | 0.0 | 14.5 | 0.00 | 0.00 | 0.00 | 39 | 1014.6 |
| 20260507201224 | 27 | 317 | 6.4 | 14.5 | 0.00 | 0.00 | 0.00 | 39 | 1014.7 |
| 20260507200725 | 27 | 223 | 0.0 | 14.5 | 0.00 | 0.00 | 0.00 | 39 | 1014.7 |
| 20260507200225 | 27 | 288 | 4.8 | 11.3 | 0.00 | 0.00 | 0.00 | 38 | 1014.7 |
| 20260507195724 | 27 | 306 | 0.0 | 14.5 | 0.00 | 0.00 | 0.00 | 38 | 1014.8 |
| 20260507195224 | 27 | 245 | 0.0 | 14.5 | 0.00 | 0.00 | 0.00 | 38 | 1014.9 |
| 20260507194724 | 26 | 306 | 0.0 | 14.5 | 0.00 | 0.00 | 0.00 | 38 | 1014.7 |
| 20260507194224 | 26 | 225 | 0.0 | 8.0 | 0.00 | 0.00 | 0.00 | 37 | 1014.8 |
| 20260507193724 | 26 | 307 | 4.8 | 9.7 | 0.00 | 0.00 | 0.00 | 37 | 1014.9 |
| 20260507193224 | 26 | 307 | 3.2 | 9.7 | 0.00 | 0.00 | 0.00 | 37 | 1014.9 |
| 20260507192724 | 25 | 310 | 3.2 | 14.5 | 0.00 | 0.00 | 0.00 | 37 | 1015.0 |
| 20260507192224 | 25 | 312 | 0.0 | 14.5 | 0.00 | 0.00 | 0.00 | 37 | 1015.0 |
| 20260507191724 | 25 | 247 | 1.6 | 8.0 | 0.00 | 0.00 | 0.00 | 37 | 1015.1 |
| 20260507191223 | 25 | 256 | 4.8 | 8.0 | 0.00 | 0.00 | 0.00 | 37 | 1015.2 |
| 20260507190724 | 25 | 187 | 0.0 | 6.4 | 0.00 | 0.00 | 0.00 | 37 | 1015.2 |
| 20260507190224 | 25 | 178 | 0.0 | 9.7 | 0.00 | 0.00 | 0.00 | 36 | 1015.2 |
| 20260507185723 | 24 | 171 | 3.2 | 9.7 | 0.00 | 0.00 | 0.00 | 36 | 1015.3 |
| 20260507185224 | 24 | 303 | 3.2 | 8.0 | 0.00 | 0.00 | 0.00 | 35 | 1015.3 |
| 20260507184723 | 24 | 307 | 3.2 | 6.4 | 0.00 | 0.00 | 0.00 | 34 | 1015.4 |
| 20260507184223 | 24 | 308 | 0.0 | 9.7 | 0.00 | 0.00 | 0.00 | 33 | 1015.4 |
| 20260507183223 | 23 | 308 | 8.0 | 11.3 | 0.00 | 0.00 | 0.00 | 31 | 1015.3 |
| 20260507182723 | 22 | 308 | 0.0 | 11.3 | 0.00 | 0.00 | 0.00 | 31 | 1015.4 |
| 20260507182223 | 22 | 309 | 8.0 | 8.0 | 0.00 | 0.00 | 0.00 | 31 | 1015.5 |
| 20260507181723 | 21 | 309 | 0.0 | 8.0 | 0.00 | 0.00 | 0.00 | 30 | 1015.4 |
| 20260507181223 | 21 | 311 | 3.2 | 6.4 | 0.00 | 0.00 | 0.00 | 30 | 1015.5 |
| 20260507180723 | 21 | 310 | 0.0 | 6.4 | 0.00 | 0.00 | 0.00 | 30 | 1015.6 |
| 20260507180223 | 20 | 310 | 4.8 | 6.4 | 0.00 | 0.00 | 0.00 | 29 | 1015.4 |
| 20260507175723 | 20 | 310 | 0.0 | 6.4 | 0.00 | 0.00 | 0.00 | 29 | 1015.5 |
| 20260507175223 | 20 | 311 | 6.4 | 6.4 | 0.00 | 0.00 | 0.00 | 28 | 1015.5 |
| 20260507174723 | 19 | 311 | 0.0 | 8.0 | 0.00 | 0.00 | 0.00 | 28 | 1015.6 |
| 20260507174222 | 18 | 312 | 3.2 | 8.0 | 0.00 | 0.00 | 0.00 | 27 | 1015.6 |
| 20260507173722 | 18 | 311 | 0.0 | 6.4 | 0.00 | 0.00 | 0.00 | 26 | 1015.7 |
| 20260507173222 | 18 | 313 | 0.0 | 8.0 | 0.00 | 0.00 | 0.00 | 25 | 1015.5 |
| 20260507172222 | 17 | 313 | 0.0 | 8.0 | 0.00 | 0.00 | 0.00 | 24 | 1015.7 |
| 20260507171722 | 17 | 314 | 1.6 | 8.0 | 0.00 | 0.00 | 0.00 | 23 | 1015.6 |
| 20260507171222 | 17 | 308 | 0.0 | 8.0 | 0.00 | 0.00 | 0.00 | 22 | 1015.7 |
| 20260507170722 | 17 | 308 | 0.0 | 9.7 | 0.00 | 0.00 | 0.00 | 21 | 1015.8 |
| 20260507170252 | 16 | 307 | 4.8 | 9.7 | 0.00 | 0.00 | 0.00 | 20 | 1015.8 |
| 20260507165751 | 16 | 164 | 0.0 | 9.7 | 0.00 | 0.00 | 0.00 | 18 | 1015.8 |
| 20260507165252 | 16 | 320 | 0.0 | 8.0 | 0.00 | 0.00 | 0.00 | 16 | 1015.8 |
| 20260507164751 | 16 | 320 | 0.0 | 8.0 | 0.00 | 0.00 | 0.00 | 14 | 1015.9 |
| 20260507164252 | 16 | 321 | 0.0 | 8.0 | 0.00 | 0.00 | 0.00 | 12 | 1015.9 |
| 20260507163751 | 15 | 321 | 3.2 | 4.8 | 0.00 | 0.00 | 0.00 | 12 | 1015.9 |
| 20260507162752 | 14 | 321 | 0.0 | 3.2 | 0.00 | 0.00 | 0.00 | 12 | 1016.0 |
| 20260507162251 | 14 | 325 | 0.0 | 0.0 | 0.00 | 0.00 | 0.00 | 13 | 1016.0 |
| 20260507161751 | 13 | 322 | 0.0 | 0.0 | 0.00 | 0.00 | 0.00 | 13 | 1015.9 |
| 20260507161252 | 13 | 322 | 0.0 | 0.0 | 0.00 | 0.00 | 0.00 | 13 | 1016.0 |
| 20260507160751 | 13 | 322 | 0.0 | 0.0 | 0.00 | 0.00 | 0.00 | 13 | 1016.0 |
| 20260507155751 | 13 | 322 | 0.0 | 0.0 | 0.00 | 0.00 | 0.00 | 13 | 1016.1 |
| 20260507155250 | 13 | 322 | 0.0 | 0.0 | 0.00 | 0.00 | 0.00 | 13 | 1016.1 |
| 20260507154750 | 13 | 322 | 0.0 | 0.0 | 0.00 | 0.00 | 0.00 | 13 | 1016.1 |
| 20260507154250 | 12 | 322 | 0.0 | 0.0 | 0.00 | 0.00 | 0.00 | 13 | 1016.1 |
| 20260507153251 | 12 | 322 | 0.0 | 0.0 | 0.00 | 0.00 | 0.00 | 13 | 1016.1 |
| 20260507152250 | 13 | 322 | 0.0 | 0.0 | 0.00 | 0.00 | 0.00 | 13 | 1016.1 |
| 20260507151750 | 12 | 322 | 0.0 | 0.0 | 0.00 | 0.00 | 0.00 | 13 | 1016.1 |
| 20260507151250 | 12 | 322 | 0.0 | 4.8 | 0.00 | 0.00 | 0.00 | 13 | 1016.1 |
| 20260507150250 | 12 | 322 | 0.0 | 0.0 | 0.00 | 0.00 | 0.00 | 13 | 1016.1 |
| 20260507145250 | 12 | 322 | 0.0 | 0.0 | 0.00 | 0.00 | 0.00 | 13 | 1016.0 |
| 20260507144749 | 12 | 322 | 0.0 | 0.0 | 0.00 | 0.00 | 0.00 | 13 | 1016.0 |
| 20260507144250 | 12 | 322 | 0.0 | 0.0 | 0.00 | 0.00 | 0.00 | 13 | 1016.0 |
| 20260507143749 | 12 | 322 | 0.0 | 0.0 | 0.00 | 0.00 | 0.00 | 13 | 1016.0 |
| 20260507143249 | 12 | 322 | 0.0 | 0.0 | 0.00 | 0.00 | 0.00 | 13 | 1016.0 |
| 20260507142750 | 12 | 322 | 0.0 | 0.0 | 0.00 | 0.00 | 0.00 | 13 | 1016.0 |
| 20260507141749 | 12 | 322 | 0.0 | 0.0 | 0.00 | 0.00 | 0.00 | 13 | 1015.9 |
| 20260507140749 | 12 | 322 | 0.0 | 0.0 | 0.00 | 0.00 | 0.00 | 13 | 1015.8 |
| 20260507140249 | 12 | 322 | 0.0 | 0.0 | 0.00 | 0.00 | 0.00 | 13 | 1015.9 |
| 20260507135249 | 12 | 307 | 0.0 | 0.0 | 0.00 | 0.00 | 0.00 | 13 | 1015.9 |
| 20260507134749 | 12 | 307 | 0.0 | 0.0 | 0.00 | 0.00 | 0.00 | 13 | 1015.9 |
| 20260507134248 | 12 | 307 | 0.0 | 6.4 | 0.00 | 0.00 | 0.00 | 13 | 1015.8 |
| 20260507133749 | 12 | 307 | 0.0 | 6.4 | 0.00 | 0.00 | 0.00 | 13 | 1015.8 |
| 20260507131748 | 12 | 307 | 0.0 | 0.0 | 0.00 | 0.00 | 0.00 | 13 | 1015.5 |
| 20260507131248 | 12 | 307 | 0.0 | 0.0 | 0.00 | 0.00 | 0.00 | 13 | 1015.4 |
| 20260507130748 | 12 | 307 | 0.0 | 0.0 | 0.00 | 0.00 | 0.00 | 13 | 1015.4 |
| 20260507125748 | 12 | 307 | 0.0 | 0.0 | 0.00 | 0.00 | 0.00 | 13 | 1015.5 |
| 20260507125248 | 12 | 307 | 0.0 | 0.0 | 0.00 | 0.00 | 0.00 | 13 | 1015.4 |
| 20260507124748 | 12 | 307 | 0.0 | 0.0 | 0.00 | 0.00 | 0.00 | 13 | 1015.4 |
| 20260507124247 | 12 | 307 | 0.0 | 0.0 | 0.00 | 0.00 | 0.00 | 13 | 1015.5 |
| 20260507123747 | 12 | 307 | 0.0 | 0.0 | 0.00 | 0.00 | 0.00 | 13 | 1015.4 |
| 20260507123248 | 12 | 307 | 0.0 | 0.0 | 0.00 | 0.00 | 0.00 | 13 | 1015.4 |
| 20260507122248 | 12 | 307 | 0.0 | 0.0 | 0.00 | 0.00 | 0.00 | 13 | 1015.5 |
| 20260507121748 | 12 | 307 | 0.0 | 0.0 | 0.00 | 0.00 | 0.00 | 13 | 1015.6 |
| 20260507121247 | 12 | 307 | 0.0 | 0.0 | 0.00 | 0.00 | 0.00 | 13 | 1015.6 |
| 20260507120748 | 12 | 307 | 0.0 | 0.0 | 0.00 | 0.00 | 0.00 | 13 | 1015.6 |
| 20260507120247 | 12 | 307 | 0.0 | 0.0 | 0.00 | 0.00 | 0.00 | 13 | 1015.7 |
| 20260507115747 | 12 | 307 | 0.0 | 0.0 | 0.00 | 0.00 | 0.00 | 13 | 1015.8 |
| 20260507114247 | 12 | 307 | 0.0 | 0.0 | 0.00 | 0.00 | 0.00 | 13 | 1015.7 |
| 20260507113747 | 12 | 307 | 0.0 | 0.0 | 0.00 | 0.00 | 0.00 | 13 | 1015.8 |
| 20260507113247 | 12 | 307 | 0.0 | 0.0 | 0.00 | 0.00 | 0.00 | 13 | 1015.7 |
| 20260507112747 | 12 | 307 | 0.0 | 0.0 | 0.00 | 0.00 | 0.00 | 13 | 1015.8 |
| 20260507111746 | 12 | 307 | 0.0 | 0.0 | 0.00 | 0.00 | 0.00 | 13 | 1015.8 |
| 20260507111247 | 12 | 307 | 0.0 | 0.0 | 0.00 | 0.00 | 0.00 | 14 | 1015.8 |
| 20260507110746 | 12 | 307 | 0.0 | 0.0 | 0.00 | 0.00 | 0.00 | 14 | 1015.8 |
| 20260507105746 | 13 | 307 | 0.0 | 0.0 | 0.00 | 0.00 | 0.00 | 14 | 1015.9 |
| 20260507105246 | 13 | 307 | 0.0 | 0.0 | 0.00 | 0.00 | 0.00 | 14 | 1015.9 |
| 20260507104746 | 13 | 307 | 0.0 | 0.0 | 0.00 | 0.00 | 0.00 | 14 | 1016.0 |
| 20260507103746 | 13 | 307 | 0.0 | 0.0 | 0.00 | 0.00 | 0.00 | 14 | 1016.1 |
| 20260507103246 | 13 | 307 | 0.0 | 0.0 | 0.00 | 0.00 | 0.00 | 14 | 1016.1 |
| 20260507102246 | 13 | 307 | 0.0 | 0.0 | 0.00 | 0.00 | 0.00 | 14 | 1016.2 |
| 20260507101746 | 13 | 307 | 0.0 | 0.0 | 0.00 | 0.00 | 0.00 | 14 | 1016.2 |
| 20260507100745 | 13 | 307 | 0.0 | 0.0 | 0.00 | 0.00 | 0.00 | 14 | 1016.2 |
| 20260507095746 | 13 | 307 | 0.0 | 0.0 | 0.00 | 0.00 | 0.00 | 14 | 1016.4 |
| 20260507095246 | 13 | 307 | 0.0 | 0.0 | 0.00 | 0.00 | 0.00 | 13 | 1016.4 |
| 20260507094746 | 13 | 307 | 0.0 | 0.0 | 0.00 | 0.00 | 0.00 | 13 | 1016.4 |
| 20260507094245 | 13 | 307 | 0.0 | 0.0 | 0.00 | 0.00 | 0.00 | 13 | 1016.5 |
| 20260507093745 | 13 | 307 | 0.0 | 0.0 | 0.00 | 0.00 | 0.00 | 13 | 1016.5 |
| 20260507093245 | 13 | 307 | 0.0 | 0.0 | 0.00 | 0.00 | 0.00 | 13 | 1016.6 |
| 20260507092745 | 13 | 307 | 0.0 | 0.0 | 0.00 | 0.00 | 0.00 | 13 | 1016.5 |
| 20260507092245 | 13 | 307 | 0.0 | 0.0 | 0.00 | 0.00 | 0.00 | 13 | 1016.6 |
| 20260507091245 | 13 | 307 | 0.0 | 0.0 | 0.00 | 0.00 | 0.00 | 13 | 1016.6 |
| 20260507090745 | 13 | 307 | 0.0 | 0.0 | 0.00 | 0.00 | 0.00 | 13 | 1016.6 |
| 20260507090245 | 13 | 307 | 0.0 | 0.0 | 0.00 | 0.00 | 0.00 | 13 | 1016.7 |
| 20260507085744 | 13 | 307 | 0.0 | 0.0 | 0.00 | 0.00 | 0.00 | 13 | 1016.6 |
| 20260507085244 | 13 | 307 | 0.0 | 0.0 | 0.00 | 0.00 | 0.00 | 13 | 1016.8 |
| 20260507084745 | 13 | 307 | 0.0 | 0.0 | 0.00 | 0.00 | 0.00 | 13 | 1016.8 |
| 20260507084244 | 13 | 307 | 0.0 | 0.0 | 0.00 | 0.00 | 0.00 | 13 | 1016.9 |
| 20260507083744 | 13 | 307 | 0.0 | 4.8 | 0.00 | 0.00 | 0.00 | 13 | 1017.0 |
| 20260507083244 | 13 | 307 | 0.0 | 4.8 | 0.00 | 0.00 | 0.00 | 13 | 1017.1 |
| 20260507082744 | 13 | 307 | 0.0 | 3.2 | 0.00 | 0.00 | 0.00 | 13 | 1017.1 |
| 20260507082244 | 13 | 307 | 0.0 | 3.2 | 0.00 | 0.00 | 0.00 | 13 | 1017.1 |
| 20260507081744 | 13 | 307 | 0.0 | 0.0 | 0.00 | 0.00 | 0.00 | 13 | 1017.1 |
| 20260507080745 | 13 | 307 | 0.0 | 0.0 | 0.00 | 0.00 | 0.00 | 13 | 1017.2 |
| 20260507080244 | 13 | 307 | 0.0 | 0.0 | 0.00 | 0.00 | 0.00 | 13 | 1017.2 |
| 20260507075744 | 13 | 307 | 0.0 | 0.0 | 0.00 | 0.00 | 0.00 | 13 | 1017.3 |
| 20260507075244 | 13 | 307 | 0.0 | 0.0 | 0.00 | 0.00 | 0.00 | 13 | 1017.4 |
| 20260507074243 | 13 | 307 | 0.0 | 0.0 | 0.00 | 0.00 | 0.00 | 13 | 1017.4 |
| 20260507073743 | 13 | 307 | 0.0 | 0.0 | 0.00 | 0.00 | 0.00 | 13 | 1017.4 |
| 20260507073244 | 13 | 307 | 0.0 | 0.0 | 0.00 | 0.00 | 0.00 | 13 | 1017.3 |
| 20260507072743 | 13 | 307 | 0.0 | 0.0 | 0.00 | 0.00 | 0.00 | 13 | 1017.3 |
| 20260507072243 | 13 | 307 | 0.0 | 0.0 | 0.00 | 0.00 | 0.00 | 13 | 1017.3 |
| 20260507071743 | 13 | 307 | 0.0 | 0.0 | 0.00 | 0.00 | 0.00 | 13 | 1017.4 |
| 20260507071243 | 12 | 307 | 0.0 | 0.0 | 0.00 | 0.00 | 0.00 | 14 | 1017.3 |
| 20260507070743 | 12 | 307 | 0.0 | 0.0 | 0.00 | 0.00 | 0.00 | 14 | 1017.4 |
| 20260507065742 | 12 | 307 | 0.0 | 0.0 | 0.00 | 0.00 | 0.00 | 15 | 1017.4 |
| 20260507065243 | 12 | 307 | 0.0 | 0.0 | 0.00 | 0.00 | 0.00 | 15 | 1017.5 |
| 20260507064743 | 12 | 307 | 0.0 | 0.0 | 0.00 | 0.00 | 0.00 | 16 | 1017.5 |
| 20260507064243 | 12 | 307 | 0.0 | 0.0 | 0.00 | 0.00 | 0.00 | 16 | 1017.5 |
| 20260507063743 | 12 | 307 | 0.0 | 0.0 | 0.00 | 0.00 | 0.00 | 16 | 1017.5 |
| 20260507063242 | 12 | 307 | 0.0 | 0.0 | 0.00 | 0.00 | 0.00 | 17 | 1017.5 |
| 20260507062742 | 12 | 307 | 0.0 | 0.0 | 0.00 | 0.00 | 0.00 | 18 | 1017.5 |
| 20260507062242 | 12 | 307 | 0.0 | 0.0 | 0.00 | 0.00 | 0.00 | 18 | 1017.5 |
| 20260507061742 | 12 | 307 | 0.0 | 0.0 | 0.00 | 0.00 | 0.00 | 19 | 1017.4 |
| 20260507061242 | 12 | 307 | 0.0 | 0.0 | 0.00 | 0.00 | 0.00 | 19 | 1017.5 |
| 20260507060742 | 12 | 307 | 0.0 | 0.0 | 0.00 | 0.00 | 0.00 | 19 | 1017.5 |
| 20260507060242 | 12 | 307 | 0.0 | 0.0 | 0.00 | 0.00 | 0.00 | 19 | 1017.5 |
| 20260507055742 | 12 | 307 | 0.0 | 0.0 | 0.00 | 0.00 | 0.00 | 19 | 1017.5 |
| 20260507055242 | 12 | 307 | 0.0 | 0.0 | 0.00 | 0.00 | 0.00 | 19 | 1017.4 |
| 20260507054742 | 12 | 307 | 0.0 | 0.0 | 0.00 | 0.00 | 0.00 | 19 | 1017.4 |
| 20260507054242 | 12 | 307 | 0.0 | 0.0 | 0.00 | 0.00 | 0.00 | 18 | 1017.4 |
| 20260507053242 | 13 | 307 | 0.0 | 0.0 | 0.00 | 0.00 | 0.00 | 18 | 1017.5 |
| 20260507052741 | 13 | 307 | 0.0 | 0.0 | 0.00 | 0.00 | 0.00 | 18 | 1017.4 |
| 20260507052242 | 13 | 307 | 0.0 | 0.0 | 0.00 | 0.00 | 0.00 | 19 | 1017.5 |
| 20260507051741 | 13 | 307 | 0.0 | 0.0 | 0.00 | 0.00 | 0.00 | 19 | 1017.6 |
| 20260507050741 | 13 | 307 | 0.0 | 0.0 | 0.00 | 0.00 | 0.00 | 19 | 1017.6 |
| 20260507045741 | 13 | 307 | 0.0 | 0.0 | 0.00 | 0.00 | 0.00 | 20 | 1017.6 |
| 20260507045241 | 13 | 307 | 0.0 | 0.0 | 0.00 | 0.00 | 0.00 | 20 | 1017.5 |
| 20260507044741 | 13 | 307 | 0.0 | 0.0 | 0.00 | 0.00 | 0.00 | 20 | 1017.5 |
| 20260507044241 | 13 | 307 | 0.0 | 0.0 | 0.00 | 0.00 | 0.00 | 21 | 1017.4 |
| 20260507043741 | 13 | 307 | 0.0 | 0.0 | 0.00 | 0.00 | 0.00 | 21 | 1017.4 |
| 20260507043240 | 13 | 307 | 0.0 | 0.0 | 0.00 | 0.00 | 0.00 | 22 | 1017.3 |
| 20260507042740 | 13 | 307 | 0.0 | 0.0 | 0.00 | 0.00 | 0.00 | 22 | 1017.3 |
| 20260507042241 | 13 | 307 | 0.0 | 0.0 | 0.00 | 0.00 | 0.00 | 23 | 1017.2 |
| 20260507041241 | 14 | 307 | 0.0 | 0.0 | 0.00 | 0.00 | 0.00 | 25 | 1017.2 |
| 20260507040240 | 14 | 307 | 0.0 | 1.6 | 0.00 | 0.00 | 0.00 | 27 | 1017.1 |
| 20260507034740 | 15 | 227 | 0.0 | 0.0 | 0.00 | 0.00 | 0.00 | 29 | 1016.9 |
| 20260507033740 | 15 | 230 | 0.0 | 0.0 | 0.00 | 0.00 | 0.00 | 31 | 1016.7 |
| 20260507033240 | 15 | 230 | 0.0 | 6.4 | 0.00 | 0.00 | 0.00 | 32 | 1016.7 |
| 20260507032240 | 15 | 230 | 0.0 | 4.8 | 0.00 | 0.00 | 0.00 | 34 | 1016.6 |
| 20260507031739 | 15 | 229 | 0.0 | 0.0 | 0.00 | 0.00 | 0.00 | 35 | 1016.6 |
| 20260507031239 | 15 | 229 | 0.0 | 1.6 | 0.00 | 0.00 | 0.00 | 36 | 1016.6 |
| 20260507030740 | 16 | 229 | 0.0 | 6.4 | 0.00 | 0.00 | 0.00 | 37 | 1016.4 |
| 20260507030241 | 16 | 229 | 0.0 | 6.4 | 0.00 | 0.00 | 0.00 | 38 | 1016.5 |
| 20260507025739 | 16 | 227 | 0.0 | 6.4 | 0.00 | 0.00 | 0.00 | 38 | 1016.4 |
| 20260507025239 | 16 | 227 | 0.0 | 6.4 | 0.00 | 0.00 | 0.00 | 39 | 1016.3 |
| 20260507024739 | 16 | 226 | 0.0 | 4.8 | 0.00 | 0.00 | 0.00 | 40 | 1016.3 |
| 20260507024240 | 17 | 226 | 0.0 | 4.8 | 0.00 | 0.00 | 0.00 | 40 | 1016.4 |